Regional Weather Roundup
Issued by NWS Sioux Falls, SD

Home | Current Version | Previous Version | Graphics & Text | Print | Product List | Glossary On
Versions: 1 2 3 4 5 6 7 8 9 10 11 12 13 14 15 16 17 18 19 20 21 22 23 24 25 26 27 28 29 30 31 32 33 34 35 36 37 38 39 40 41 42 43 44 45 46 47 48 49 50
241
ASUS43 KFSD 260310
RWRFSD

WEATHER ROUNDUP FOR SE SOUTH DAKOTA/SW MINNESOTA/NW IOWA
NATIONAL WEATHER SERVICE SIOUX FALLS SD
1000 PM CDT SAT MAR 25 2017

NOTE: "FAIR" INDICATES FEW OR NO CLOUDS BELOW 12,000 FEET WITH NO
SIGNIFICANT WEATHER AND OR OBSTRUCTIONS TO VISIBILITY.


SDZ038>040-050-052>070-260400-
SOUTHEAST SOUTH DAKOTA

CITY           SKY/WX    TMP DP  RH WIND       PRES   REMARKS
BROOKINGS      MIX PCPN  37  36  96 E10       29.99F FOG
CHAMBERLAIN    MOCLDY    38  37  97 E8        29.95S
HURON          CLOUDY    41  38  89 SE8       29.98S
MADISON        CLOUDY    36  36 100 E13       29.99S FOG
MITCHELL       CLOUDY    41  40  96 SE9       29.99S FOG
SIOUX FALLS    CLOUDY    40  37  89 E12       29.99S
WINNER         MOCLDY    41  38  89 SE24      29.90F
YANKTON        CLOUDY    39  37  93 NE7       29.98S
$$

MNZ071-072-080-081-089-090-097-098-260400-
SOUTHWEST MINNESOTA

CITY           SKY/WX    TMP DP  RH WIND       PRES   REMARKS
FAIRMONT       LGT RAIN  37  36  96 NE9       29.99F
JACKSON        CLOUDY    36  36 100 NE10      30.00S
LUVERNE        CLOUDY    36  34  93 E8        29.99F
MARSHALL       CLOUDY    38  36  92 E7        30.03S
MONTEVIDEO     CLOUDY    37  36  93 E3        30.06S
PIPESTONE      CLOUDY    37  34  87 E9        29.98S FOG
REDWOOD FALLS  CLOUDY    40  34  79 E6        30.03F
TRACY          CLOUDY    38  37  94 E8        30.01F
WINDOM         CLOUDY    37  36  93 NE9       30.01S FOG
WORTHINGTON    CLOUDY    36  36 100 NE13      29.99F FOG
$$

IAZ001>003-012>014-020>022-031-032-NEZ013-014-SDZ071-260400-
NORTHWEST IOWA

CITY           SKY/WX    TMP DP  RH WIND       PRES   REMARKS
CHEROKEE       CLOUDY    38  38 100 NE6       29.98S
ESTHERVILLE    CLOUDY    36  36 100 NE13      29.97F
LE MARS        CLOUDY    39  37  93 NE9G16    29.99F
ORANGE CITY    CLOUDY    37  37 100 E9        29.97F FOG
SHELDON        CLOUDY    37  37 100 E13       29.97F FOG
SIOUX CITY     CLOUDY    39  39 100 NE7       29.98F
SPENCER        CLOUDY    37  37 100 NE10      29.98S
STORM LAKE     CLOUDY    37  37 100 NE10      29.96S FOG
$$

ABBREVIATIONS USED IN REMARKS
   TC - TEMPERATURE IN CELSIUS
  WCI - WIND CHILL INDEX
   HX - HEAT INDEX
  VSB - VISIBILITY





USA.gov is the U.S. government's official web portal to all federal, state and local government web resources and services.